Other Surface Observations
Issued by NWS

Home | Current Version | Previous Version | Text Only | Print | Product List | Glossary On
Versions: 1 2 3 4 5 6 7 8 9 10 11 12 13 14 15 16 17 18 19 20 21 22 23 24 25 26 27 28 29 30 31 32 33 34 35 36 37 38 39 40 41 42 43 44 45 46 47 48 49 50
000
SXUS52 KTAE 040218
OSOTAE
OSOTAE
North Florida/South Alabama/Southwest Georgia Weather Roundup
National Weather Service Tallahassee Florida
900 PM EST TUE MAR 03 2015

Note: "fair" indicates few or no clouds below 12,000 feet with no
significant weather and/or obstructions to visibility.

!FLZ017-115-028-034-025-040300
...North Florida...

CITY           SKY/WX    TMP DP  RH WIND       PRES   REMARKS
TALLAHASSEE    CLEAR     66  62  87 CALM      30.13R
APALACHICOLA   MOCLDY    65  61  87 CALM      30.12S
PERRY          CLEAR     64  63  95 CALM      30.14S
CROSS CITY       N/A     66  62  87 CALM      30.13R
JACKSONVILLE   CLEAR     67  66  97 SE7       30.14R
$$

!FLZ112-006-005-002-011-040300
...Florida Panhandle...

CITY           SKY/WX    TMP DP  RH WIND       PRES   REMARKS
MARIANNA       CLEAR     69  65  86 S5        30.11R
BONIFAY        FAIR      68  63  84 S6        30.12
PANAMA CITY NW FOG       63  62  97 SE3       30.12R VSB 1/2
TYNDALL AFB    CLOUDY    63  63 100 S8        30.12S FOG
TYND DRONE APT FOG       62  63 100 S8        30.12R VSB 3/4
DE FUNIAK SPR  CLOUDY    64  63  98 S6        30.12R FOG
EGLIN AFB      CLOUDY    64  63  94 SE5       30.10S FOG
DESTIN         CLOUDY    64  63  96 SE8       30.11S FOG
HURLBURT       FOG       64  60  85 SE7       30.09S VSB 1
CRESTVIEW      CLOUDY    65  64  97 VRB5      30.12R FOG
PENSACOLA      FOG       64  63  96 SE9       30.08S VSB 1/2
$$

!ALZ063-066-040300
...South Alabama...

CITY           SKY/WX    TMP DP  RH WIND       PRES   REMARKS
DOTHAN         CLOUDY    70  63  78 S6        30.13R
OZARK CAIRNS   CLOUDY    70  62  74 S8        30.10R
FT RUCKER HELI CLOUDY    71  63  75 S6        30.09R
RUCKER HELI 3  MOCLDY    70  64  80 S9        30.10S
RUCKER HELI 2  CLOUDY    70  62  76 S3        30.09S
FLORALA APT    CLOUDY    67  62  84 S8        30.12R
ANDALUSIA      PTCLDY    70  63  78 S6        30.09S
TROY           PTCLDY    66  60  81 S5        30.09S
EUFALA         FAIR      70  60  70 S3        30.08S
MOBILE         CLOUDY    64  63  96 SE10      30.07R
$$

!GAZ120>161-040300
...Southwest and South Central Georgia...

CITY           SKY/WX    TMP DP  RH WIND       PRES   REMARKS
THOMASVILLE    FAIR      70  64  83 SW5       30.14R
BAINBRIDGE     CLEAR     72  66  83 S5        30.12R
MOODY AFB      CLEAR     70  61  72 SW6       30.12R
VALDOSTA       CLEAR     66  61  84 S3        30.13R
MOULTRIE       CLEAR     70  63  78 S3        30.14R
BLAKELY        PTCLDY    73  64  73 S5        30.11R
ALBANY         CLEAR     72  62  71 S8        30.13R
TIFTON         FAIR      70  60  70 S5        30.12S
FITZGERALD     FAIR      70  61  73 SW5       30.14R
CORDELE        FAIR      73  63  69 SW6       30.12R
AMERICUS       FAIR      70  63  78 S7        30.12R
HOMERVILLE     FAIR      73  64  73 SW5       30.13S
$$

!GMZ750-755-770-775-040300
...Coastal and Buoy Obs...

STATION/POSITION TIME  TEMP    WIND        PRES    VSBY  WAVE
                       AIR SEA DIR/SP/G                  HT/PER
                 (UTC) (F)     (DEG/KT/KT) (MB)    (MI)  (FT/S)
KEATON BEACH     0200   64      CALM  /  4 1020.6R
CEDAR KEY        0154   68     320/  3/  4 1020.9R
C TOWER          0200   66     150/ 11/ 11 1019.6F
APALACHICOLA BUO 0200   67 68  110/  4/  4 1020.1R         1/ 3
PANAMA CITY BUOY 0051   68 68  120/  8/  8 1019.6          1/ 4
MOBILE BUOY      0137   71 71  140/ 19/ 21 1017.6R         4/ 7
ORANGE BCH AL BU 0200   66 65  110/ 10/ 12 1017.5R         2/ 8
$$



USA.gov is the U.S. government's official web portal to all federal, state and local government web resources and services.